Regional Weather Roundup
Issued by NWS

Home | Current Version | Previous Version | Graphics & Text | Print | Product List | Glossary On
Versions: 1 2 3 4 5 6 7 8 9 10 11 12 13 14 15 16 17 18 19 20 21 22 23 24 25 26 27 28 29 30 31 32 33 34 35 36 37 38 39 40 41 42 43 44 45 46 47 48 49 50
000
ASUS45 KTFX 242004
RWRMT
MONTANA HOURLY WEATHER ROUNDUP
NATIONAL WEATHER SERVICE GREAT FALLS MT
204 PM MDT THU APR 24 2014

NOTE: "FAIR" INDICATES FEW OR NO CLOUDS BELOW 12000 FEET WITH NO
SIGNIFICANT WEATHER AND/OR OBSTRUCTIONS TO VISIBILITY.

* THESE STATIONS ARE NOT UNDER NWS QUALITY CONTROL. THEY DO NOT
   REPORT WEATHER SUCH AS PRECIPITATION OR FOG.

MTZ001>007-043-242100-
WEST OF THE DIVIDE
CITY           SKY/WX    TMP DP  RH WIND       PRES   REMARKS
KALISPELL      LGT RAIN  45  39  80 S13       29.79R
MISSOULA       LGT RAIN  46  43  89 E6        29.84S
BUTTE          CLOUDY    45  30  56 S7        29.83F
MULLAN PASS    FOG       32  30  92 VRB7G17   29.78S VSB 3    WCI  25
* ESSEX        N/A       42  37  83 SE4        N/A
* LINCOLN      N/A       43  39  86 W5         N/A
* LOOKOUT PASS N/A       39  35  86 SE5G10     N/A   WCI  35
* POLSON       N/A       43  41  93 S2         N/A
* SEELEY LAKE  N/A       42  38  86 W2         N/A
* THOMP F APT  CLOUDY    34  34 100 SW3G15     N/A
$$

MTZ008-052>055-242100-
SOUTHWEST MONTANA
CITY           SKY/WX    TMP DP  RH WIND       PRES   REMARKS
BOZEMAN        CLOUDY    50  30  46 W10       29.82F
DILLON         CLOUDY    48  28  46 SW13G24   29.82F
W YELLOWSTONE  N/A       37  33  85 SW5G10     N/A   WCI  33
* BOULDER HILL N/A       43  26  51 S17G24     N/A
* MONIDA PASS  N/A       35  31  85 S13G21     N/A   WCI  26
* RAYNOLDS PAS N/A       33  15  47 SE12       N/A   WCI  24
* WHITEHALL    N/A       49  30  48 SW19G29    N/A
* WISE RIVER   N/A       41  37  86 W8G14      N/A
$$

MTZ009>010-012-014-046-048-049-054-242100-
EAST SLOPES AND CENTRAL MONTANA
CITY           SKY/WX    TMP DP  RH WIND       PRES   REMARKS
CUT BANK       CLOUDY    52  28  40 W13       29.69F
GREAT FALLS    CLOUDY    55  34  45 SW22G31   29.72F
HELENA         CLOUDY    54  34  47 SW20      29.77S
MALMSTROM AFB  CLOUDY    55  30  39 SW23G30   29.69F
* DEARBORN     N/A       54  34  47 S13G24     N/A
* EAST GLACIER N/A       46  32  58 NW16G24    N/A
* MONARCH      N/A       46  24  42 SW23G32    N/A
* PENDROY      N/A       50  29  44 SW13       N/A
* ROGERS PASS  N/A       37  33  85 SE12G17    N/A   WCI  29
* SAINT MARY   N/A       49  33  54 SW10G20    N/A
* SWEET GRASS  N/A       51  26  38 SW11G23    N/A
$$

MTZ011-013-016-021-035-040-045-047-050-051-242100-
NORTH CENTRAL MONTANA
CITY           SKY/WX    TMP DP  RH WIND       PRES   REMARKS
HAVRE          CLOUDY    55  27  34 SW13      29.71F
LEWISTOWN      CLOUDY    48  28  46 W18G31    29.76S
* DENTON       N/A       53  26  35 W16G24     N/A
* GEYSER       N/A       52  27  38 SW22G30    N/A
* JUDITH GAP   N/A       49  25  39 W17G26     N/A
* LOMA         N/A       56  30  37 S12G22     N/A
$$

MTZ017>020-022>027-061-062-242100-
NORTHEAST MONTANA
CITY           SKY/WX    TMP DP  RH WIND       PRES   REMARKS
GLASGOW        SUNNY     55  25  31 W12G21    29.72F
GLENDIVE       PTSUNNY   59  27  29 NW16G21   29.76F
JORDAN         PTCLDY    61  21  21 W18G26    29.74F
SIDNEY         PTCLDY    57  30  36 W14G20    29.75F
WOLF POINT     PTSUNNY   59  23  25 W14G23    29.74F
* BEAVER HILL  N/A       56  22  27 W21G32     N/A
* CIRCLE       N/A       56  29  36 W7G18      N/A
* LINDSAY DVD  N/A       55  22  28 W16G29     N/A
* NAVAJO       N/A       52  27  38 NW15       N/A
* SACO         N/A       59  19  21 W17G24     N/A
$$

MTZ028>042-056>058-242100-
SOUTHCENTRAL AND SOUTHEAST MONTANA
CITY           SKY/WX    TMP DP  RH WIND       PRES   REMARKS
BAKER          SUNNY     57  18  22 NW23G33   29.77F
BILLINGS       CLOUDY    59  23  25 SW13      29.76F
LIVINGSTON     CLOUDY    52  28  40 SW37G52   29.79F
MILES CITY     CLOUDY    57  23  27 W17G23    29.77F
* LAUREL APT   CLOUDY    61  25  25 SW14G23    N/A
* ROUNDUP APT  CLOUDY    57  25  29 SW14G22    N/A
* HYSHAM       N/A       57  26  30 W12        N/A
* REED POINT   N/A       57  30  36 W17G27     N/A
* ROSCOE HILL  N/A       54  18  24 SW10G26    N/A
$$

REGIONAL REPORTS...DAKOTAS
CITY           SKY/WX    TMP DP  RH WIND       PRES   REMARKS
WILLISTON      PTSUNNY   55  34  45 VRB6      29.72F
DICKINSON      PTCLDY    61  19  20 W17G29    29.71S
CROSBY         N/A       55  32  42 N/A        N/A
TIOGA          PTCLDY    55  30  39 NW13G23   29.74S
WATFORD CITY   PTSUNNY   55  30  39 W16       29.70F
BISMARCK       PTCLDY    61  19  20 W21G26    29.69F
GRAND FORKS    FOG       43  39  86 S6        29.70F
FARGO          CLOUDY    46  43  89 SW9       29.70S
BUFFALO SD     SUNNY     57  21  25 W32G38    29.72F
RAPID CITY     PTCLDY    61  28  29 NE9       29.80F
$$

REGIONAL REPORTS...WYOMING/IDAHO/WASHINGTON
CITY           SKY/WX    TMP DP  RH WIND       PRES   REMARKS
GILLETTE       PTCLDY    61  19  20 W10G17    29.79F
SHERIDAN       PTCLDY    61  25  25 NE6       29.79F
CODY           CLOUDY    54  23  30 W12G18    29.80F
YELLOWSTONE LA CLOUDY    36  27  70 VRB6      29.95F WCI  31
SALMON         PTSUNNY   54  34  47 SE9       29.84F
MULLAN PASS    FOG       32  30  92 VRB7G17   29.78S VSB 3    WCI  25
SPOKANE        PTSUNNY   52  45  77 SW17      29.74F

$$




USA.gov is the U.S. government's official web portal to all federal, state and local government web resources and services.